User: anonymous   Login
Location: Unspecified
(0.0000°N, 0.0000°E)
Time: 20:47:12
(UTC+02:00)
Language:

Cosmos 1703 Rocket - Orbit

View from above orbital plane
View from above orbital plane
View from above satellite
View from above satellite

Ground track
Ground track

The orbit data is extracted from the following two-line orbital elements,

1 16263U 85108B   17206.24229549 +.00000081 +00000-0 +70473-5 0  9998
2 16263 082.5030 078.6271 0019070 219.6035 280.0365 14.82991784688944
Epoch (UTC): 25 July 2017 05:48:54
Eccentricity: 0.0019070
inclination: 82.5030°
perigee height: 606 km
apogee height: 633 km
right ascension of ascending node: 78.6271°
argument of perigee: 219.6035°
revolutions per day: 14.82991784
mean anomaly at epoch: 280.0365°
orbit number at epoch: 68894

The dashed part of the orbit path shows where the satellite is in the earth's shadow,  

DLR